Terminal Aerodrome Forecast
Issued by NWS

Home | Current Version | Previous Version | Text Only | Print | Product List | Glossary On
Versions: 1 2 3 4 5 6 7 8 9 10 11 12 13 14 15
000
FTUS43 KJKL 261722
TAFSME
TAF
KSME 261722Z 2618/2718 25008KT 2SM +RA SCT030 BKN040 OVC045
     FM262200 VRB05KT 5SM -SHRA OVC030
     FM270000 20005KT P6SM VCSH BKN030
     FM270600 VRB04KT P6SM BKN050=

USA.gov is the U.S. government's official web portal to all federal, state and local government web resources and services.